User: anonymous   Login
Location: Iesi
(43.5167°N, 13.2333°E)
Time: 16:06:27
(UTC+00:00)
Language:

MetOp-A - Orbit

View from above orbital plane
View from above orbital plane
View from above satellite
View from above satellite

Ground track
Ground track

The orbit data is extracted from the following two-line orbital elements,

1 29499U 06044A   20296.41676139 -.00000009  00000-0  14971-4 0  9999
2 29499  98.5079 338.7630 0000609 108.7923 311.6695 14.21492450726927
Epoch (UTC): 22 October 2020 10:00:08
Eccentricity: 0.0000609
inclination: 98.5079°
perigee height: 820 km
apogee height: 821 km
right ascension of ascending node: 338.7630°
argument of perigee: 108.7923°
revolutions per day: 14.21492450
mean anomaly at epoch: 311.6695°
orbit number at epoch: 72692

The dashed part of the orbit path shows where the satellite is in the earth's shadow,  

DLR